EST,Max TemperatureF,Mean TemperatureF,Min TemperatureF,Max Dew PointF,MeanDew PointF,Min DewpointF,Max Humidity, Mean Humidity, Min Humidity, Max Sea Level PressureIn, Mean Sea Level PressureIn, Min Sea Level PressureIn, Max VisibilityMiles, Mean VisibilityMiles, Min VisibilityMiles, Max Wind SpeedMPH, Mean Wind SpeedMPH, Max Gust SpeedMPH,PrecipitationIn, CloudCover, Events, WindDirDegrees
2013-2-1,32,26,19,28,19,1,93,70,36,30.40,29.96,29.82,10,6,1,31,10,41,0.01,7,Snow,275
2013-2-2,31,22,14,25,14,1,93,65,36,30.40,30.21,30.03,10,9,3,16,8,20,0.00,4,Snow,210
2013-2-3,33,26,19,28,22,15,100,88,52,30.00,29.93,29.86,10,5,0,15,1,23,0.00,5,Fog-Snow,210
2013-2-4,35,29,23,20,14,8,63,50,41,30.12,30.02,29.91,10,10,10,17,11,28,0.00,3,,242
2013-2-5,41,35,29,27,24,20,82,65,53,29.95,29.90,29.86,10,10,10,7,4,,0.00,5,,45
2013-2-6,45,36,28,29,25,19,85,65,43,30.38,30.17,29.96,10,10,10,17,6,24,0.00,2,,334
2013-2-7,39,32,25,29,24,19,78,68,53,30.46,30.36,30.22,10,10,10,10,4,,0.00,4,,73
2013-2-8,41,36,32,39,33,20,100,88,54,30.17,29.91,29.74,10,9,5,31,10,47,1.36,7,Rain,348
2013-2-9,39,34,29,21,16,13,58,48,37,30.40,30.20,29.92,10,10,10,38,20,50,0.99,1,,317
2013-2-10,44,32,20,29,16,12,79,52,29,30.50,30.40,30.26,10,10,10,12,5,,0.00,2,,151
2013-2-11,54,45,36,50,42,30,100,95,70,30.25,29.98,29.73,10,7,1,18,9,21,0.39,7,Rain,201
2013-2-12,55,47,37,32,27,24,67,47,31,30.00,29.93,29.83,10,10,10,15,10,22,0.00,0,,313
2013-2-13,45,38,32,36,32,24,100,82,53,29.96,29.75,29.67,10,8,3,13,7,,0.14,7,Rain,27
2013-2-14,48,40,33,34,30,20,100,78,36,30.03,29.92,29.80,10,8,5,13,5,,0.00,3,,267
2013-2-15,59,46,34,36,33,27,93,74,31,30.05,30.01,29.90,10,10,8,22,9,30,0.10,5,Rain,298
2013-2-16,37,34,32,36,31,15,96,84,47,30.03,29.94,29.83,10,10,8,17,5,,0.01,5,Rain-Snow,357
2013-2-17,31,28,24,16,8,2,56,44,32,30.21,29.98,29.83,10,10,10,30,18,38,0.00,1,,298
2013-2-18,40,30,21,17,8,2,52,39,25,30.40,30.29,30.19,10,10,10,17,11,28,0.00,0,,242
2013-2-19,44,40,35,41,33,17,93,75,45,30.16,29.90,29.75,10,10,5,21,14,29,0.10,5,Rain,206
2013-2-20,37,31,25,20,13,6,52,44,37,30.17,30.02,29.86,10,10,10,22,14,32,0.01,2,,308
2013-2-21,37,30,23,16,12,7,59,47,37,30.33,30.21,30.14,10,10,10,23,13,31,0.00,0,,307
2013-2-22,33,31,29,30,24,15,94,74,54,30.39,30.31,30.23,10,9,5,10,6,,0.00,7,Rain-Snow,102
2013-2-23,44,38,31,45,38,30,100,98,93,30.21,29.98,29.82,10,4,2,12,5,,0.04,8,Rain,1
2013-2-24,50,42,33,43,35,17,100,82,36,30.12,29.88,29.80,10,8,3,22,9,31,0.11,5,,320
2013-2-25,45,36,27,24,21,18,81,55,38,30.24,30.19,30.12,10,10,10,13,8,,0.00,0,,302
2013-2-26,46,36,27,46,37,21,100,89,69,30.23,29.90,29.60,10,8,4,24,9,40,0.72,6,Rain,73
2013-2-27,54,47,40,46,42,32,100,91,48,29.71,29.57,29.51,10,5,0,17,8,22,0.01,7,Fog-Rain,314
2013-2-28,46,42,39,36,29,23,78,60,39,29.74,29.67,29.64,10,10,10,18,9,26,0.02,5,Rain,302